Weather History for Rockport, TX

Change the Weather History Date:

Wednesday, January 15, 2014

  Actual Average Record
Temperature  
Mean Temperature 58 °F -  
Max Temperature 71 °F 63 °F 75 °F (2000)
Min Temperature 46 °F 44 °F 27 °F (1979)
Degree Days  
Heating Degree Days 6    
Growing Degree Days 8 (Base 50)    
Moisture  
Dew Point 31 °F    
Average Humidity 45    
Maximum Humidity 93    
Minimum Humidity 14    
Precipitation  
Precipitation 0.00 in - - ()
Sea Level Pressure  
Sea Level Pressure 30.34 in    
Wind  
Wind Speed 12 mph (North)    
Max Wind Speed 18 mph    
Max Gust Speed 26 mph    
Visibility 10 miles    
Events      
Averages and records for this station are not official NWS values.
T = Trace of Precipitation, MM = Missing Value Source: NWS Daily Summary

Daily Weather History Graph

Daily Weather History Graph

Search for Another Location

Airport:

Trip Planner

Search our weather history database for the weather conditions in past years. The results will help you decide how hot, cold, wet, or windy it might be!

Date:

Astronomy

Jan. 15, 2014 Rise Set
Actual Time 7:20 AM CST 5:54 PM CST
Civil Twilight 6:55 AM CST 6:19 PM CST
Nautical Twilight 6:26 AM CST 6:48 PM CST
Astronomical Twilight 5:58 AM CST 7:17 PM CST
Moon 5:48 PM CST (1/15) 6:41 AM CST (1/15)
Length of Visible Light 11h 24m
Length of Day
10h 33m
Full, 100% of the Moon is Illuminated
Jan 15
Full
Jan 15
Full
Jan 23
Last Quarter
Jan 30
New
Feb 6
First Quarter

Hourly Weather History & Observations

Time (CST) Temp. Windchill Dew Point Humidity Pressure Visibility Wind Dir Wind Speed Gust Speed Precip Events Conditions
12:53 AM 57.9 °F - 36.0 °F 44% 30.27 in 10.0 mi North 16.1 mph 21.9 mph N/A   Clear
1:53 AM 57.0 °F - 35.1 °F 44% 30.29 in 10.0 mi North 13.8 mph 24.2 mph N/A   Clear
2:53 AM 55.0 °F - 35.1 °F 47% 30.32 in 10.0 mi North 13.8 mph - N/A   Clear
3:53 AM 54.0 °F - 34.0 °F 47% 30.35 in 10.0 mi North 12.7 mph - N/A   Clear
4:53 AM 53.1 °F - 30.0 °F 41% 30.38 in 10.0 mi North 16.1 mph 23.0 mph N/A   Clear
5:53 AM 51.1 °F - 27.0 °F 39% 30.40 in 10.0 mi North 18.4 mph 26.5 mph N/A   Clear
6:53 AM 50.0 °F - 28.0 °F 43% 30.43 in 10.0 mi North 18.4 mph - N/A   Clear
7:53 AM 50.0 °F - 27.0 °F 41% 30.45 in 10.0 mi North 12.7 mph - N/A   Clear
8:53 AM 55.0 °F - 26.1 °F 33% 30.46 in 10.0 mi North 11.5 mph - N/A   Clear
9:53 AM 60.1 °F - 21.9 °F 23% 30.48 in 10.0 mi NNE 10.4 mph - N/A   Clear
10:53 AM 64.0 °F - 21.0 °F 19% 30.46 in 10.0 mi North 9.2 mph - N/A   Clear
11:53 AM 69.1 °F - 19.9 °F 15% 30.43 in 10.0 mi NNE 11.5 mph - N/A   Clear
12:53 PM 71.1 °F - 19.9 °F 14% 30.39 in 10.0 mi NNW 9.2 mph - N/A   Clear
1:53 PM 62.1 °F - 19.9 °F 20% 30.34 in - WNW 4.6 mph - N/A   Clear
2:53 PM 63.0 °F - 21.0 °F 20% 30.32 in 10.0 mi West 4.6 mph - N/A   Clear
3:53 PM 60.1 °F - 33.1 °F 36% 30.31 in 10.0 mi SSE 9.2 mph - N/A   Clear
4:53 PM 57.0 °F - 36.0 °F 45% 30.29 in 10.0 mi South 8.1 mph - N/A   Clear
5:53 PM 53.1 °F - 37.9 °F 57% 30.28 in 10.0 mi South 4.6 mph - N/A   Clear
6:53 PM 51.1 °F - 37.9 °F 61% 30.27 in 10.0 mi South 5.8 mph - N/A   Clear
7:53 PM 50.0 °F - 37.0 °F 61% 30.27 in 10.0 mi South 4.6 mph - N/A   Clear
8:53 PM 48.0 °F - 39.0 °F 71% 30.26 in 10.0 mi South 3.5 mph - N/A   Clear
9:53 PM 48.0 °F - 41.0 °F 77% 30.26 in 10.0 mi SSE 5.8 mph - N/A   Clear
10:53 PM 46.9 °F - 44.1 °F 90% 30.25 in 10.0 mi South 5.8 mph - N/A   Clear
11:53 PM 46.0 °F 43.9 °F 44.1 °F 93% 30.23 in 10.0 mi South 4.6 mph - N/A   Clear